Location: Casa Rossa
(45.2389°N, 12.2056°E)
Time: 23:34:01
(UTC+00:00)

Cosmos 1733 Rocket - Pass Details

Date: 14 July 2020
Orbit: 604 x 627 km, 82.5° (Epoch: 14 August)

Event Time Altitude Azimuth Distance (km) Brightness Sun altitude
Exits shadow 01:29:33 25° 173° (S) 1,242 4.2 -16.7°
Maximum altitude 01:32:01 68° 96° (E) 653 3.2 -16.4°
Drops below altitude 10° 01:36:19 10° 14° (NNE) 1,963 6.8 -16.0°
Sets 01:38:33 0° 12° (NNE) 2,872 7.8 -15.8°
